Página principal
METAR-TAF:

METAR-TAF

Aeroportos :

Linguère, Senegal

latitude: 15-23N, longitude: 015-07W, altura: 20 m

Observação actual do tempo

O boletim foi feito há 1 hora e 42 minutos, às 03:00 UTC
Vento 6 kt de oeste
Temperatura 26°C
Humidade 94%
Pressão 1010 hPa
Visibilidade 10 km ou mais
sem nuvens abaixo de 1500 metros e sem cumulonimbus

METAR: GOOG 230300Z 28006KT CAVOK 26/25 Q1010

Hora: 04:42 (04:42 UTC)


TAF: em falta

Observações e previsões do tempo de mais de 4000 aeroportos (mensagens METAR e TAF).

As estações disponíveis são os pontos amarelos e vermelhos sobre o mapa.

Mova o rato sobre o mapa para ver o nome da estação.

Depois clique no ponto para visualizar as observações e previsões meteorológicas.

Para alterar o mapa : clique nos botões verdes com uma cruz preta para aumentar o zoom; no botão verde com uma pitada de zoom; ou nas setas verdes para mapas adjacentes.


METAR-TAF: